Location: LDNL
(36.4545°S, 141.6685°E)
Time: 20:05:44
(UTC+10:00)

A-11 Canister half - Pass Details

Date: 06 February 2022
Orbit: 1527 x 1682 km, 47.3° (Epoch: 20 May)

Event Time Altitude Azimuth Distance (km) Brightness Sun altitude
Rises 21:44:14 0° 297° (WNW) 4,912 12.1 -12.6°
Reaches altitude 10° 21:47:23 10° 295° (WNW) 3,937 11.6 -13.2°
Maximum altitude 21:57:34 75° 210° (SSW) 1,742 9.4 -14.9°
Drops below altitude 10° 22:07:46 10° 124° (SE) 3,937 10.9 -16.6°
Sets 22:10:56 0° 121° (ESE) 4,912 11.4 -17.2°
